TimeCST,TemperatureF,Dew PointF,Humidity,Sea Level PressureIn,VisibilityMPH,Wind Direction,Wind SpeedMPH,Gust SpeedMPH,PrecipitationIn,Events,Conditions,WindDirDegrees,DateUTC
12:15 AM,26.4,22.8,86,30.07,10.0,NNW,3.5,-,N/A,,Scattered Clouds,340,2014-02-16 06:15:00
12:35 AM,27.9,23.9,85,30.08,10.0,WNW,3.5,-,N/A,,Scattered Clouds,290,2014-02-16 06:35:00
12:55 AM,26.1,22.8,88,30.09,7.0,North,4.6,-,N/A,,Overcast,350,2014-02-16 06:55:00
1:15 AM,27.5,23.5,85,30.09,7.0,North,5.8,-,N/A,,Overcast,360,2014-02-16 07:15:00
1:35 AM,28.9,24.6,84,30.12,10.0,NW,4.6,-,N/A,,Overcast,320,2014-02-16 07:35:00
1:55 AM,28.8,24.3,83,30.12,10.0,NNW,8.1,-,N/A,,Overcast,330,2014-02-16 07:55:00
2:15 AM,28.0,23.5,83,30.11,10.0,NNW,8.1,-,N/A,,Overcast,330,2014-02-16 08:15:00
2:35 AM,27.9,23.4,83,30.13,10.0,NW,9.2,-,N/A,,Overcast,320,2014-02-16 08:35:00
2:55 AM,27.5,23.0,83,30.11,10.0,North,10.4,-,N/A,,Overcast,10,2014-02-16 08:55:00
3:15 AM,27.1,22.8,84,30.11,10.0,NNW,8.1,-,N/A,,Overcast,340,2014-02-16 09:15:00
3:35 AM,27.0,22.5,83,30.12,10.0,NNW,10.4,-,N/A,,Overcast,330,2014-02-16 09:35:00
3:55 AM,26.4,22.1,84,30.12,10.0,NNW,6.9,-,N/A,,Overcast,330,2014-02-16 09:55:00
4:15 AM,26.1,21.9,84,30.12,10.0,NNW,8.1,-,N/A,,Overcast,330,2014-02-16 10:15:00
4:35 AM,25.3,21.2,84,30.12,10.0,North,11.5,-,N/A,,Overcast,10,2014-02-16 10:35:00
4:55 AM,24.6,20.7,85,30.11,10.0,North,11.5,-,N/A,,Overcast,10,2014-02-16 10:55:00
5:15 AM,23.9,20.1,85,30.12,10.0,NNE,9.2,-,N/A,,Overcast,30,2014-02-16 11:15:00
5:35 AM,23.7,20.1,86,30.13,10.0,North,8.1,-,N/A,,Overcast,10,2014-02-16 11:35:00
5:55 AM,23.2,19.9,87,30.13,7.0,North,9.2,-,N/A,,Overcast,10,2014-02-16 11:55:00
6:15 AM,23.0,19.4,86,30.13,7.0,NNE,10.4,-,N/A,,Overcast,20,2014-02-16 12:15:00
6:35 AM,23.0,19.8,87,30.12,7.0,NE,9.2,-,N/A,,Overcast,40,2014-02-16 12:35:00
6:55 AM,23.0,19.4,86,30.12,10.0,NE,6.9,-,N/A,,Overcast,50,2014-02-16 12:55:00
7:15 AM,23.0,19.2,85,30.11,7.0,NE,9.2,-,N/A,,Overcast,50,2014-02-16 13:15:00
7:35 AM,22.5,18.5,85,30.12,5.0,ENE,10.4,-,N/A,,Overcast,60,2014-02-16 13:35:00
7:55 AM,22.5,18.5,85,30.12,7.0,NE,10.4,-,N/A,,Overcast,50,2014-02-16 13:55:00
8:15 AM,22.5,18.3,84,30.14,7.0,ENE,8.1,-,N/A,,Overcast,70,2014-02-16 14:15:00
8:35 AM,22.8,18.5,83,30.15,5.0,ENE,6.9,-,N/A,,Haze,60,2014-02-16 14:35:00
8:55 AM,23.0,18.7,84,30.15,5.0,ENE,6.9,-,N/A,,Overcast,70,2014-02-16 14:55:00
9:15 AM,23.7,18.5,80,30.14,7.0,East,8.1,-,N/A,,Overcast,80,2014-02-16 15:15:00
9:35 AM,24.3,18.9,80,30.14,7.0,East,9.2,-,N/A,,Overcast,80,2014-02-16 15:35:00
9:55 AM,24.4,18.9,79,30.13,7.0,East,9.2,-,N/A,,Overcast,100,2014-02-16 15:55:00
10:15 AM,25.2,19.4,79,30.13,7.0,ESE,9.2,-,N/A,,Overcast,110,2014-02-16 16:15:00
10:35 AM,26.1,20.1,78,30.12,7.0,ESE,10.4,-,N/A,,Overcast,110,2014-02-16 16:35:00
10:55 AM,26.6,20.3,77,30.11,5.0,ESE,12.7,-,N/A,,Haze,120,2014-02-16 16:55:00
11:15 AM,26.8,20.7,78,30.10,5.0,SE,16.1,-,N/A,,Haze,130,2014-02-16 17:15:00
11:35 AM,27.5,21.0,77,30.10,5.0,SE,15.0,-,N/A,,Haze,130,2014-02-16 17:35:00
11:55 AM,28.8,21.7,75,30.09,7.0,SE,12.7,-,N/A,,Overcast,140,2014-02-16 17:55:00
12:15 PM,30.0,22.1,72,30.08,7.0,SE,15.0,21.9,N/A,,Overcast,130,2014-02-16 18:15:00
12:35 PM,30.0,21.9,72,30.07,7.0,SE,13.8,19.6,N/A,,Overcast,140,2014-02-16 18:35:00
12:55 PM,31.3,22.6,70,30.05,10.0,SE,17.3,-,N/A,,Overcast,130,2014-02-16 18:55:00
1:15 PM,32.0,22.6,68,30.04,10.0,SSE,13.8,23.0,N/A,,Overcast,150,2014-02-16 19:15:00
1:35 PM,33.4,23.0,66,30.02,10.0,SSE,19.6,23.0,N/A,,Mostly Cloudy,150,2014-02-16 19:35:00
1:55 PM,33.1,23.4,67,30.00,10.0,SE,18.4,23.0,N/A,,Overcast,130,2014-02-16 19:55:00
2:15 PM,33.1,23.7,68,30.00,10.0,SE,18.4,-,N/A,,Mostly Cloudy,140,2014-02-16 20:15:00
2:35 PM,33.6,23.9,68,29.97,10.0,SE,18.4,-,N/A,,Scattered Clouds,130,2014-02-16 20:35:00
2:55 PM,34.5,24.4,67,29.96,10.0,SE,19.6,-,N/A,,Scattered Clouds,140,2014-02-16 20:55:00
3:15 PM,35.2,24.6,65,29.95,10.0,SSE,17.3,23.0,N/A,,Clear,150,2014-02-16 21:15:00
3:35 PM,35.6,25.0,65,29.94,10.0,SE,18.4,27.6,N/A,,Clear,140,2014-02-16 21:35:00
3:55 PM,36.0,25.0,64,29.93,10.0,SE,19.6,24.2,N/A,,Clear,140,2014-02-16 21:55:00
4:15 PM,36.1,25.5,65,29.92,10.0,SSE,23.0,26.5,N/A,,Clear,150,2014-02-16 22:15:00
4:35 PM,36.9,25.5,64,29.92,10.0,SSE,21.9,29.9,N/A,,Clear,150,2014-02-16 22:35:00
4:55 PM,35.8,25.5,66,29.91,10.0,SSE,19.6,25.3,N/A,,Clear,150,2014-02-16 22:55:00
5:15 PM,33.8,24.8,70,29.90,10.0,SSE,18.4,23.0,N/A,,Clear,150,2014-02-16 23:15:00
5:35 PM,33.3,25.2,72,29.90,10.0,SSE,17.3,20.7,N/A,,Clear,150,2014-02-16 23:35:00
5:55 PM,32.4,25.2,75,29.90,10.0,SE,17.3,-,N/A,,Clear,140,2014-02-16 23:55:00
6:15 PM,32.0,25.3,76,29.91,10.0,SE,17.3,-,N/A,,Clear,140,2014-02-17 00:15:00
6:35 PM,32.0,25.5,77,29.91,10.0,SE,15.0,-,N/A,,Clear,140,2014-02-17 00:35:00
6:55 PM,32.0,26.1,79,29.92,10.0,SE,13.8,21.9,N/A,,Clear,140,2014-02-17 00:55:00
7:15 PM,32.0,26.1,79,29.90,10.0,SE,18.4,-,N/A,,Clear,140,2014-02-17 01:15:00
7:35 PM,32.0,25.9,78,29.91,10.0,SE,16.1,-,N/A,,Clear,140,2014-02-17 01:35:00
7:55 PM,32.0,25.7,78,29.89,10.0,SSE,18.4,24.2,N/A,,Clear,150,2014-02-17 01:55:00
8:15 PM,32.0,25.7,78,29.90,10.0,SSE,18.4,-,N/A,,Clear,150,2014-02-17 02:15:00
8:35 PM,32.0,25.7,78,29.88,10.0,SSE,18.4,24.2,N/A,,Clear,150,2014-02-17 02:35:00
8:55 PM,32.0,25.7,78,29.87,10.0,SSE,19.6,25.3,N/A,,Scattered Clouds,150,2014-02-17 02:55:00
9:15 PM,32.0,25.7,78,29.88,10.0,SE,15.0,25.3,N/A,,Mostly Cloudy,140,2014-02-17 03:15:00
9:35 PM,32.0,25.7,78,29.87,10.0,SE,15.0,21.9,N/A,,Scattered Clouds,140,2014-02-17 03:35:00
9:55 PM,31.6,25.7,79,29.87,10.0,SE,16.1,-,N/A,,Clear,140,2014-02-17 03:55:00
10:15 PM,31.5,25.5,79,29.85,10.0,SE,16.1,19.6,N/A,,Clear,140,2014-02-17 04:15:00
10:35 PM,31.5,25.3,78,29.85,10.0,SE,17.3,24.2,N/A,,Scattered Clouds,140,2014-02-17 04:35:00
10:55 PM,31.1,25.0,78,29.83,10.0,SE,19.6,25.3,N/A,,Clear,140,2014-02-17 04:55:00
11:15 PM,30.6,24.8,79,29.85,10.0,SE,13.8,-,N/A,,Clear,140,2014-02-17 05:15:00
11:35 PM,30.7,24.8,79,29.85,10.0,SSE,13.8,17.3,N/A,,Clear,150,2014-02-17 05:35:00
11:55 PM,30.6,24.8,79,29.84,10.0,SSE,15.0,-,N/A,,Scattered Clouds,150,2014-02-17 05:55:00